Location: Newark
(48.5667°N, 12.8167°E)
Time: 03:21:27
(UTC+00:00)

CAS-4B - Pass Details

Date: 19 November 2019
Orbit: 528 x 546 km, 43.0° (Epoch: 05 December)

Event Time Altitude Azimuth Distance (km) Brightness Sun altitude
Rises 05:32:02 0° 209° (SSW) 2,675 ? -8.4°
Reaches altitude 10° 05:35:05 10° 185° (S) 1,784 ? -7.9°
Maximum altitude 05:37:21 15° 151° (SSE) 1,513 ? -7.6°
Drops below altitude 10° 05:39:38 10° 117° (ESE) 1,782 ? -7.2°
Sets 05:42:41 0° 93° (E) 2,672 ? -6.7°
